Volver al catálogo

FENGYUN 1C DEB

ActivoPO
NORAD 30163·DEBRIS·🇨🇳 China

Lanzado May 10, 1999 desde Taiyuan Satellite Launch Center

Loading…

Próximos Pases (próximas 24 horas)

TLE

ActualizadoSource: Space-Track

Época: Sep 14, 2026, 05:00 UTC

1 30163U 99025TU  26257.20846531  .00001056  00000-0  13659-2 0  9997
2 30163  98.7038 338.7985 0368586 257.9579 124.9336 13.39408733956327

Sigue FENGYUN 1C DEB en tiempo real con AllMySat

Download on the App Store